Time,TemperatureF,DewpointF,PressureIn,WindDirection,WindDirectionDegrees,WindSpeedMPH,WindSpeedGustMPH,Humidity,HourlyPrecipIn,Conditions,Clouds,dailyrainin,SoftwareType,DateUTC
2013-06-28 00:50:00,73.0,-99.9,-100.00,NE,46,1.0,6.0,-999,-99.99,,,-99.99,,2013-06-28 05:50:00,
2013-06-28 01:43:00,73.0,-99.9,-100.00,NE,46,1.0,6.0,-999,-99.99,,,-99.99,,2013-06-28 06:43:00,
2013-06-28 04:52:00,64.0,-99.9,-100.00,NNW,328,5.0,5.0,-999,-99.99,,,-99.99,,2013-06-28 09:52:00,
2013-06-28 05:02:00,64.0,-99.9,-100.00,NNW,328,5.0,5.0,-999,-99.99,,,-99.99,,2013-06-28 10:02:00,
2013-06-28 06:22:00,68.0,-99.9,-100.00,East,100,4.0,5.0,-999,-99.99,,,-99.99,,2013-06-28 11:22:00,
2013-06-28 06:34:00,68.0,-99.9,-100.00,East,100,4.0,5.0,-999,-99.99,,,-99.99,,2013-06-28 11:34:00,
2013-06-28 07:30:00,65.0,-99.9,-100.00,NNE,17,1.0,8.0,-999,-99.99,,,-99.99,,2013-06-28 12:30:00,
2013-06-28 07:52:00,62.0,-99.9,-100.00,NNE,16,2.0,4.0,-999,-99.99,,,-99.99,,2013-06-28 12:52:00,
2013-06-28 08:11:00,65.0,-99.9,-100.00,NNE,17,1.0,8.0,-999,-99.99,,,-99.99,,2013-06-28 13:11:00,
2013-06-28 08:23:00,65.0,-99.9,-100.00,NNE,17,1.0,8.0,-999,-99.99,,,-99.99,,2013-06-28 13:23:00,
2013-06-28 09:00:00,80.0,-99.9,-100.00,ENE,65,2.0,4.0,-999,-99.99,,,-99.99,,2013-06-28 14:00:00,
2013-06-28 09:44:00,80.0,-99.9,-100.00,ENE,65,2.0,4.0,-999,-99.99,,,-99.99,,2013-06-28 14:44:00,
2013-06-28 09:53:00,80.0,-99.9,-100.00,ENE,65,2.0,4.0,-999,-99.99,,,-99.99,,2013-06-28 14:53:00,
2013-06-28 12:44:00,91.0,-99.9,-100.00,East,101,6.0,14.0,-999,-99.99,,,-99.99,,2013-06-28 17:44:00,
2013-06-28 16:43:00,94.0,-99.9,-100.00,East,91,17.0,19.0,-999,-99.99,,,-99.99,,2013-06-28 21:43:00,
2013-06-28 17:00:00,94.0,-99.9,-100.00,NE,52,7.0,18.0,-999,-99.99,,,-99.99,,2013-06-28 22:00:00,
2013-06-28 17:34:00,94.0,-99.9,-100.00,NE,52,7.0,18.0,-999,-99.99,,,-99.99,,2013-06-28 22:34:00,
2013-06-28 17:43:00,94.0,-99.9,-100.00,NE,52,7.0,18.0,-999,-99.99,,,-99.99,,2013-06-28 22:43:00,
2013-06-28 17:53:00,94.0,-99.9,-100.00,NE,52,7.0,18.0,-999,-99.99,,,-99.99,,2013-06-28 22:53:00,
2013-06-28 20:52:00,89.0,-99.9,-100.00,East,91,13.0,14.0,-999,-99.99,,,-99.99,,2013-06-29 01:52:00,
2013-06-28 21:01:00,89.0,-99.9,-100.00,East,91,13.0,14.0,-999,-99.99,,,-99.99,,2013-06-29 02:01:00,
2013-06-28 21:11:00,89.0,-99.9,-100.00,East,91,13.0,14.0,-999,-99.99,,,-99.99,,2013-06-29 02:11:00,
2013-06-28 21:51:00,85.0,-99.9,-100.00,East,83,4.0,6.0,-999,-99.99,,,-99.99,,2013-06-29 02:51:00,
2013-06-28 22:01:00,85.0,-99.9,-100.00,East,83,4.0,6.0,-999,-99.99,,,-99.99,,2013-06-29 03:01:00,